Flag for Indonesia Weather past 2 weeks in Makassar, South Sulawesi, Indonesia

Now
68 °F

Passing clouds.


Feels Like: 68 °F
Forecast: 74 / 91 °F
Wind: 3 mph from Southeast

Location: Ujung Pandang / Hasanuddin

Current Time: Sep 22, 2014 at 3:10:49 AM

Latest Report: Sep 22, 2014 at 2:30 AM


Visibility: 5 mi

Pressure: 29.86 "Hg

Humidity: 83%

Dew point: 63 °F

Location of MakassarLocation

Historic Weather in Makassar — Graph

°F

Makassar temperature yesterday

Maximum temperature yesterday: 93 °F (at 12:00 PM)
Minimum temperature yesterday: 64 °F (at 6:00 AM)
Average temperature yesterday: 82 °F

Past Weeks' High & Low Weather Summary

 TemperatureHumidityPressure
High99 °F (Sep 13, 1:30 PM)94% (Sep 8, 4:00 AM)29.95 "Hg (Sep 8, 4:00 AM)
Low64 °F (Sep 8, 6:00 AM)16% (Sep 13, 10:00 AM)29.71 "Hg (Sep 13, 3:30 PM)
Average82 °F54%29.85 "Hg
* Reported Sep 7 2:00 AM — Sep 22 2:00 AM, Makassar, Weather by CustomWeather, © 2014

Note: Actual official high and low records may vary slightly from our data, if they occured in-between our weather recording intervals... More about our weather records

Advertising

Makassar weather history for previous 24 hours

 ConditionsComfort  
Time TempWeatherWind HumidityBarometerVisibility
2:00 AM
Sep 22
70 °FPassing clouds.7 mph83%29.86 "Hg5 mi
1:30 AM70 °FPassing clouds.2 mph83%29.89 "Hg5 mi
1:00 AM72 °FPassing clouds.3 mph78%29.89 "Hg5 mi
12:30 AM73 °FPassing clouds.2 mph78%29.89 "Hg5 mi
12:00 AM73 °FPassing clouds.3 mph78%29.89 "Hg5 mi
11:30 PM
Sep 21
75 °FPassing clouds.3 mph74%29.89 "Hg5 mi
11:00 PM77 °FPassing clouds.3 mph69%29.92 "Hg5 mi
10:30 PM77 °FPassing clouds.3 mph69%29.92 "Hg5 mi
10:00 PM77 °FPassing clouds.2 mph69%29.89 "Hg5 mi
9:30 PM77 °FPassing clouds.5 mph69%29.89 "Hg5 mi
9:00 PM79 °FPassing clouds.3 mph65%29.89 "Hg5 mi
8:30 PM81 °FPassing clouds.3 mph62%29.89 "Hg5 mi
8:00 PM81 °FPassing clouds.5 mph62%29.86 "Hg5 mi
7:30 PM82 °FPassing clouds.6 mph62%29.86 "Hg5 mi
7:00 PM84 °FClear.5 mph58%29.86 "Hg5 mi
6:30 PM86 °FClear.3 mph52%29.83 "Hg5 mi
6:00 PM88 °FClear.3 mph49%29.83 "Hg6 mi
5:30 PM90 °FClear.5 mph43%29.80 "Hg6 mi
5:00 PM91 °FPassing clouds.5 mph38%29.80 "HgN/A
4:30 PM91 °FPassing clouds.5 mph41%29.80 "HgN/A
4:00 PM91 °FPassing clouds.6 mph41%29.80 "HgN/A
3:30 PM93 °FPassing clouds.6 mph36%29.80 "HgN/A
3:00 PM91 °FPassing clouds.9 mph38%29.80 "HgN/A
2:30 PM91 °FPassing clouds.10 mph38%29.80 "HgN/A
2:00 PM91 °FPassing clouds.13 mph41%29.83 "HgN/A
1:30 PM91 °FPassing clouds.13 mph44%29.83 "HgN/A
1:00 PM91 °FPassing clouds.13 mph38%29.83 "HgN/A
12:30 PM91 °FPassing clouds.13 mph41%29.86 "HgN/A
12:00 PM93 °FPassing clouds.13 mph39%29.86 "Hg6 mi
11:30 AM91 °FPassing clouds.12 mph38%29.89 "Hg6 mi
11:00 AM91 °FPassing clouds.13 mph38%29.89 "Hg6 mi
10:30 AM91 °FPassing clouds.8 mph38%29.89 "Hg6 mi
10:00 AM90 °FPassing clouds.7 mph41%29.92 "Hg6 mi
9:30 AM88 °FPassing clouds.9 mph46%29.92 "Hg6 mi
9:00 AM88 °FPassing clouds.7 mph49%29.95 "Hg6 mi
8:30 AM84 °FPassing clouds.7 mph55%29.92 "Hg6 mi
8:00 AM82 °FPassing clouds.8 mph55%29.92 "Hg6 mi
7:30 AM79 °FPassing clouds.2 mph61%29.92 "HgN/A
7:00 AM72 °FPassing clouds.3 mph78%29.92 "HgN/A
6:30 AM68 °FPassing clouds.2 mph83%29.89 "HgN/A
6:00 AM64 °FPassing clouds.3 mph94%29.89 "Hg6 mi
5:30 AM66 °FPassing clouds.1 mph94%29.86 "Hg5 mi
5:00 AM66 °FPassing clouds.1 mph88%29.86 "Hg5 mi
4:30 AM68 °FPassing clouds.3 mph83%29.86 "Hg5 mi
4:00 AM70 °FPassing clouds.3 mph83%29.86 "Hg5 mi
3:30 AM72 °FPassing clouds.2 mph78%29.86 "Hg5 mi
3:00 AM72 °FPassing clouds.5 mph78%29.83 "Hg5 mi
Weather by CustomWeather, © 2014

See weather overviewHow to use our weather pages